WetterOnline ( http://www.wetteronline.de )

Wetter aktuell Bremervörde

Aktuelles Wetter: Bremervörde (5m)

6-stündlich | Neueste Meldungen
Ortszeit Temperatur Wetter
Fr, 22.09. 2:00 8.1° C Nebel
Do, 21.09. 20:00 13.0° C wolkig
Do, 21.09. 14:00 17.5° C bedeckt
Do, 21.09. 8:00 11.3° C bewölkt
Ortszeit Temperatur Wetter
Fr, 22.09. 6:00 6.1° C Nebel
Fr, 22.09. 5:30 6.7° C Nebel
Fr, 22.09. 5:00 7.0° C Nebel
Fr, 22.09. 4:30 6.7° C Nebel
Fr, 22.09. 4:00 6.9° C Nebel
Fr, 22.09. 3:30 7.3° C Nebel
Ortszeit Relative Feuchte Sichtweite
Fr, 22.09. 2:00 97% 100 m
Do, 21.09. 20:00 93% 3.5 km
Do, 21.09. 14:00 66% 13 km
Do, 21.09. 8:00 90% 3.1 km
Ortszeit Relative Feuchte Sichtweite
Fr, 22.09. 6:00 98% 0.2 km
Fr, 22.09. 5:30 97% 0.3 km
Fr, 22.09. 5:00 97% 100 m
Fr, 22.09. 4:30 97% 100 m
Fr, 22.09. 4:00 97% 100 m
Fr, 22.09. 3:30 98% 100 m
Ortszeit Niederschlagsmenge Niederschlagsart
Fr, 22.09. 2:00 0.0 l/m2 in 6 Std. -
Do, 21.09. 20:00 0.0 l/m2 in 12 Std. -
Do, 21.09. 14:00 0.0 l/m2 in 6 Std. -
Do, 21.09. 8:00 0.1 l/m2 in 12 Std. Regen
Ortszeit Niederschlagsmenge Niederschlagsart
Fr, 22.09. 6:00 0.0 l/m2 in 1 Std. -
Fr, 22.09. 5:30 keine Meldung -
Fr, 22.09. 5:00 0.0 l/m2 in 1 Std. -
Fr, 22.09. 4:30 keine Meldung -
Fr, 22.09. 4:00 0.0 l/m2 in 1 Std. -
Fr, 22.09. 3:30 keine Meldung -
Ortszeit Stärke Spitze Richtung
km/h Bft. km/h Grad Sektor
Fr, 22.09. 2:00 0 0 7 - -
Do, 21.09. 20:00 4 1 14 100° O
Do, 21.09. 14:00 6 1 20 260° W
Do, 21.09. 8:00 7 2 14 220° SW
Ortszeit Stärke Spitze Richtung
km/h Bft. km/h Grad Sektor
Fr, 22.09. 6:00 0 0 7 - -
Fr, 22.09. 5:30 0 0 4 - -
Fr, 22.09. 5:00 0 0 4 - -
Fr, 22.09. 4:30 2 1 4 80° O
Fr, 22.09. 4:00 2 1 4 130° SO
Fr, 22.09. 3:30 0 0 4 - -
Ortszeit Untergrenze Bedeckung Gattung
total tief tief mittel hoch
Fr, 22.09. 2:00 <30 m 8/8 8/8 - - -
Do, 21.09. 20:00 1800 m 6/8 6/8 - - -
Do, 21.09. 14:00 1800 m 8/8 8/8 - - -
Do, 21.09. 8:00 1800 m 8/8 7/8 - - -
Ortszeit Bedeckungsgrad in Achtel und Wolkenuntergrenze
Fr, 22.09. 6:00 6(<30m) 6(3600m)
Fr, 22.09. 5:30 6(<30m)
Fr, 22.09. 5:00 8(<30m)
Fr, 22.09. 4:30 8(<30m)
Fr, 22.09. 4:00 8(<30m)
Fr, 22.09. 3:30 7(<30m)
Ortszeit Luftdruck NN (hPa) Tendenz (hPa in 3 Std.)
Fr, 22.09. 2:00 1021 + 0,2
Do, 21.09. 20:00 1021 + 0,8
Do, 21.09. 14:00 1020 - 0,8
Do, 21.09. 8:00 1020 + 0,2
Ortszeit Luftdruck NN (hPa) Tendenz (hPa in 3 Std.)
Fr, 22.09. 6:00 1021 - 0,4
Fr, 22.09. 5:30 1021 - 0,5
Fr, 22.09. 5:00 1021 - 0,6
Fr, 22.09. 4:30 1021 - 0,6
Fr, 22.09. 4:00 1021 - 0,5
Fr, 22.09. 3:30 1021 - 0,3
Ortszeit Schneehöhe (cm)
Fr, 22.09. 2:00 -
Do, 21.09. 20:00 -
Do, 21.09. 14:00 -
Do, 21.09. 8:00 -
Ortszeit Schneehöhe (cm)
Fr, 22.09. 6:00 -
Fr, 22.09. 5:30 -
Fr, 22.09. 5:00 -
Fr, 22.09. 4:30 -
Fr, 22.09. 4:00 -
Fr, 22.09. 3:30 -
Link zu dieser Seite / Seite empfehlen

Das Wetter in ...